This is the latest recevied weather packets stored in our database for station/object EA4BCR. If no packets are shown the sender has not sent any weather packets the latest 10 day(s).
| Time | Temp. | Humidity | Pressure | Rain* | Wind** | Luminosity | Snow |
|---|---|---|---|---|---|---|---|
| 1788086417 | 29.44° C | 23% | 1014.2 hPa | - | - | - | - |
| 1788085817 | 28.89° C | 23% | 1014.3 hPa | - | - | - | - |
| 1788085218 | 28.33° C | 24% | 1014.5 hPa | - | - | - | - |
| 1788084617 | 27.78° C | 25% | 1014.8 hPa | - | - | - | - |
| 1788084018 | 27.22° C | 27% | 1015.1 hPa | - | - | - | - |
| 1788083417 | 26.67° C | 29% | 1015.4 hPa | - | - | - | - |
| 1788082819 | 26.11° C | 31% | 1015.6 hPa | - | - | - | - |
| 1788082217 | 25.56° C | 31% | 1015.8 hPa | - | - | - | - |
| 1788081618 | 25° C | 35% | 1016.1 hPa | - | - | - | - |
| 1788081018 | 24.44° C | 37% | 1016.2 hPa | - | - | - | - |
| 1788080418 | 23.33° C | 40% | 1016.6 hPa | - | - | - | - |
| 1788079817 | 22.22° C | 40% | 1016.8 hPa | - | - | - | - |
| 1788079217 | 21.67° C | 44% | 1017.2 hPa | - | - | - | - |
| 1788078617 | 21.11° C | 40% | 1017.3 hPa | - | - | - | - |
| 1788078017 | 20° C | 44% | 1017.8 hPa | - | - | - | - |
| 1788077417 | 19.44° C | 45% | 1018 hPa | - | - | - | - |
| 1788076817 | 18.89° C | 44% | 1018.4 hPa | - | - | - | - |
| 1788076217 | 18.33° C | 44% | 1018.7 hPa | - | - | - | - |
| 1788075617 | 17.78° C | 45% | 1018.9 hPa | - | - | - | - |
| 1788075017 | 17.22° C | 47% | 1019.1 hPa | - | - | - | - |
| 1788074418 | 16.11° C | 47% | 1019.4 hPa | - | - | - | - |
| 1788073817 | 15.56° C | 44% | 1019.6 hPa | - | - | - | - |
| 1788073217 | 15° C | 46% | 1019.9 hPa | - | - | - | - |
| 1788072617 | 14.44° C | 49% | 1020.1 hPa | - | - | - | - |
| 1788072017 | 13.89° C | 47% | 1020.3 hPa | - | - | - | - |
* Rain since midnight (hover to see other rain measurements)
** Current wind speed in m/s (hover to see current wind gust speed)